Weather History for Thomasville, GA

Change the Weather History Date:

Friday, May 24, 2013

  Actual Average (KVLD) Record (KVLD)
Temperature  
Mean Temperature 75 °F 76 °F  
Max Temperature 86 °F 88 °F 97 °F (2011)
Min Temperature 64 °F 64 °F 52 °F (2001)
Cooling Degree Days 10 11  
Month to date cooling degree days 197  
Year to date cooling degree days 332  
Growing Degree Days 25 (Base 50)    
Moisture  
Dew Point 57 °F    
Average Humidity 57    
Maximum Humidity 94    
Minimum Humidity 27    
Precipitation  
Precipitation 0.00 in 0.09 in 0.41 in (1997)
Month to date precipitation 1.60  
Year to date precipitation 18.07  
Sea Level Pressure  
Sea Level Pressure 30.07 in    
Wind  
Wind Speed 5 mph (NNW)    
Max Wind Speed 15 mph    
Max Gust Speed 21 mph    
Visibility 10 miles    
Events      
T = Trace of Precipitation, MM = Missing Value Source: NWS Daily Summary

Daily Weather History Graph

Daily Weather History Graph

Search for Another Location

Airport:

Trip Planner

Search our weather history database for the weather conditions in past years. The results will help you decide how hot, cold, wet, or windy it might be!

Date:

Astronomy

May. 24, 2013 Rise Set
Actual Time 6:35 AM EDT 8:29 PM EDT
Civil Twilight 6:08 AM EDT 8:56 PM EDT
Nautical Twilight 5:35 AM EDT 9:29 PM EDT
Astronomical Twilight 5:01 AM EDT 10:04 PM EDT
Moon 8:12 PM EDT (5/24) 6:03 AM EDT (5/24)
Length of Visible Light 14h 48m
Length of Day
13h 54m
Full, 100% of the Moon is Illuminated
May 24
Full
May 25
Full
May 31
Last Quarter
Jun 8
New
Jun 16
First Quarter

Hourly Weather History & Observations

Time (EDT) Temp. Heat Index Dew Point Humidity Pressure Visibility Wind Dir Wind Speed Gust Speed Precip Events Conditions
12:15 AM 68.0 °F - 66.2 °F 94% 30.01 in 10.0 mi Calm Calm - N/A   Clear
12:35 AM 68.0 °F - 66.2 °F 94% 30.02 in 10.0 mi Calm Calm - N/A   Clear
12:55 AM 68.0 °F - 64.4 °F 88% 30.02 in 10.0 mi Calm Calm - N/A   Clear
1:15 AM 69.8 °F - 66.2 °F 88% 30.01 in 10.0 mi Calm Calm - N/A   Clear
1:35 AM 69.8 °F - 64.4 °F 83% 30.01 in 10.0 mi Calm Calm - N/A   Clear
1:55 AM 68.0 °F - 64.4 °F 88% 30.01 in 10.0 mi Calm Calm - N/A   Clear
2:15 AM 69.8 °F - 60.8 °F 73% 30.01 in 10.0 mi West 3.5 mph - N/A   Clear
2:35 AM 69.8 °F - 60.8 °F 73% 30.00 in 10.0 mi WNW 4.6 mph - N/A   Clear
2:55 AM 69.8 °F - 60.8 °F 73% 29.99 in 10.0 mi WNW 4.6 mph - N/A   Clear
3:15 AM 69.8 °F - 60.8 °F 73% 29.99 in 10.0 mi Calm Calm - N/A   Clear
3:35 AM 68.0 °F - 62.6 °F 83% 29.98 in 10.0 mi WNW 3.5 mph - N/A   Clear
3:55 AM 68.0 °F - 60.8 °F 78% 29.99 in 10.0 mi West 3.5 mph - N/A   Clear
4:15 AM 69.8 °F - 60.8 °F 73% 29.99 in 10.0 mi West 4.6 mph - N/A   Clear
4:35 AM 68.0 °F - 60.8 °F 78% 30.01 in 10.0 mi West 3.5 mph - N/A   Clear
4:55 AM 68.0 °F - 60.8 °F 78% 30.01 in 10.0 mi Calm Calm - N/A   Clear
5:15 AM 68.0 °F - 60.8 °F 78% 30.01 in 10.0 mi Calm Calm - N/A   Clear
5:35 AM 66.2 °F - 62.6 °F 88% 30.02 in 10.0 mi Calm Calm - N/A   Clear
5:55 AM 64.4 °F - 62.6 °F 94% 30.02 in 10.0 mi Calm Calm - N/A   Clear
6:15 AM 66.2 °F - 62.6 °F 88% 30.03 in 10.0 mi Calm Calm - N/A   Clear
6:35 AM 64.4 °F - 62.6 °F 94% 30.03 in 10.0 mi Calm Calm - N/A   Clear
6:55 AM 64.4 °F - 62.6 °F 94% 30.04 in 10.0 mi NNW 3.5 mph - N/A   Clear
7:15 AM 68.0 °F - 62.6 °F 83% 30.04 in 10.0 mi NW 4.6 mph - N/A   Clear
7:35 AM 69.8 °F - 62.6 °F 78% 30.05 in 10.0 mi NW 3.5 mph - N/A   Clear
7:55 AM 69.8 °F - 62.6 °F 78% 30.06 in 10.0 mi NNW 5.8 mph - N/A   Clear
8:15 AM 69.8 °F - 62.6 °F 78% 30.06 in 10.0 mi NNW 8.1 mph - N/A   Clear
8:35 AM 71.6 °F - 62.6 °F 73% 30.07 in 10.0 mi North 8.1 mph - N/A   Clear
8:55 AM 73.4 °F - 60.8 °F 65% 30.07 in 10.0 mi North 6.9 mph - N/A   Clear
9:15 AM 73.4 °F - 60.8 °F 65% 30.08 in 10.0 mi NNW 9.2 mph - N/A   Clear
9:35 AM 73.4 °F - 59.0 °F 61% 30.09 in 10.0 mi North 8.1 mph - N/A   Clear
9:55 AM 77.0 °F - 59.0 °F 54% 30.09 in 10.0 mi North 11.5 mph 16.1 mph N/A   Clear
10:15 AM 77.0 °F - 59.0 °F 54% 30.09 in 10.0 mi North 12.7 mph - N/A   Clear
10:35 AM 77.0 °F - 59.0 °F 54% 30.10 in 10.0 mi North 9.2 mph - N/A   Clear
10:55 AM 77.0 °F - 59.0 °F 54% 30.10 in 10.0 mi NNW 12.7 mph 16.1 mph N/A   Clear
11:15 AM 78.8 °F - 59.0 °F 51% 30.11 in 10.0 mi North 12.7 mph 19.6 mph N/A   Clear
11:35 AM 78.8 °F - 59.0 °F 51% 30.11 in 10.0 mi NNW 12.7 mph 16.1 mph N/A   Clear
11:55 AM 78.8 °F - 57.2 °F 47% 30.10 in 10.0 mi North 15.0 mph - N/A   Clear
12:15 PM 80.6 °F 80.5 °F 55.4 °F 42% 30.10 in 10.0 mi North 13.8 mph 17.3 mph N/A   Clear
12:35 PM 80.6 °F 80.5 °F 55.4 °F 42% 30.10 in 10.0 mi NW 15.0 mph - N/A   Clear
12:55 PM 80.6 °F 80.3 °F 53.6 °F 39% 30.10 in 10.0 mi NW 11.5 mph 20.7 mph N/A   Clear
1:15 PM 82.4 °F 81.7 °F 55.4 °F 39% 30.09 in 10.0 mi NNW 13.8 mph - N/A   Clear
1:35 PM 82.4 °F 81.4 °F 53.6 °F 37% 30.09 in 10.0 mi NNW 10.4 mph 17.3 mph N/A   Clear
1:55 PM 84.2 °F 82.8 °F 53.6 °F 35% 30.09 in 10.0 mi NNW 13.8 mph 18.4 mph N/A   Clear
2:15 PM 82.4 °F - 51.8 °F 35% 30.09 in 10.0 mi NNW 13.8 mph 20.7 mph N/A   Clear
2:35 PM 84.2 °F - 51.8 °F 33% 30.09 in 10.0 mi NW 13.8 mph 19.6 mph N/A   Clear
2:55 PM 84.2 °F - 51.8 °F 33% 30.09 in 10.0 mi NNW 15.0 mph 19.6 mph N/A   Clear
3:15 PM 86.0 °F - 51.8 °F 31% 30.09 in 10.0 mi North 9.2 mph 18.4 mph N/A   Clear
3:35 PM 86.0 °F - 51.8 °F 31% 30.08 in 10.0 mi NNW 12.7 mph 19.6 mph N/A   Clear
3:55 PM 86.0 °F - 51.8 °F 31% 30.08 in 10.0 mi NNW 10.4 mph 20.7 mph N/A   Clear
4:35 PM 86.0 °F - 51.8 °F 31% 30.08 in 10.0 mi North 11.5 mph - N/A   Clear
4:55 PM 86.0 °F - 50.0 °F 29% 30.08 in 10.0 mi NNE 10.4 mph 17.3 mph N/A   Clear
5:15 PM 86.0 °F - 50.0 °F 29% 30.08 in 10.0 mi NNW 9.2 mph - N/A   Clear
5:35 PM 86.0 °F - 48.2 °F 27% 30.08 in 10.0 mi NNW 10.4 mph - N/A   Clear
5:55 PM 86.0 °F - 50.0 °F 29% 30.08 in 10.0 mi North 8.1 mph 16.1 mph N/A   Clear
6:15 PM 86.0 °F - 50.0 °F 29% 30.08 in 10.0 mi North 9.2 mph - N/A   Clear
6:35 PM 84.2 °F - 48.2 °F 29% 30.08 in 10.0 mi North 13.8 mph - N/A   Clear
6:55 PM 84.2 °F - 46.4 °F 27% 30.08 in 10.0 mi NNE 9.2 mph - N/A   Clear
7:15 PM 82.4 °F - 48.2 °F 30% 30.08 in 10.0 mi North 4.6 mph - N/A   Clear
7:35 PM 80.6 °F - 50.0 °F 34% 30.08 in 10.0 mi NNE 4.6 mph - N/A   Clear
7:55 PM 80.6 °F - 51.8 °F 37% 30.09 in 10.0 mi North 4.6 mph - N/A   Clear
8:15 PM 78.8 °F - 51.8 °F 39% 30.09 in 10.0 mi North 3.5 mph - N/A   Clear
8:35 PM 77.0 °F - 51.8 °F 41% 30.10 in 10.0 mi NNE 3.5 mph - N/A   Clear
8:55 PM 75.2 °F - 51.8 °F 44% 30.10 in 10.0 mi NNE 4.6 mph - N/A   Clear
9:15 PM 73.4 °F - 53.6 °F 50% 30.11 in 10.0 mi North 5.8 mph - N/A   Clear
9:35 PM 73.4 °F - 51.8 °F 47% 30.12 in 10.0 mi North 4.6 mph - N/A   Clear
9:55 PM 71.6 °F - 53.6 °F 53% 30.13 in 10.0 mi North 3.5 mph - N/A   Clear
10:15 PM 71.6 °F - 51.8 °F 50% 30.14 in 10.0 mi North 4.6 mph - N/A   Clear
10:35 PM 69.8 °F - 50.0 °F 49% 30.15 in 10.0 mi North 4.6 mph - N/A   Clear
10:55 PM 69.8 °F - 50.0 °F 49% 30.16 in 10.0 mi NNE 4.6 mph - N/A   Clear
11:15 PM 69.8 °F - 50.0 °F 49% 30.16 in 10.0 mi North 5.8 mph - N/A   Clear
11:35 PM 69.8 °F - 50.0 °F 49% 30.17 in 10.0 mi NNE 4.6 mph - N/A   Clear
11:55 PM 68.0 °F - 50.0 °F 52% 30.17 in 10.0 mi North 4.6 mph - N/A   Clear